Weather History for Scilly, Saint Mary'S, United Kingdom

Change the Weather History Date:

Tuesday, August 20, 2013

  Actual Average Record
Temperature  
Mean Temperature 62 °F -  
Max Temperature 68 °F 62 °F - ()
Min Temperature 57 °F 57 °F - ()
Degree Days  
Heating Degree Days 2    
Growing Degree Days 12 (Base 50)    
Moisture  
Dew Point 58 °F    
Average Humidity 78    
Maximum Humidity 94    
Minimum Humidity 62    
Precipitation  
Precipitation 0.00 in - - ()
Sea Level Pressure  
Sea Level Pressure 30.37 in    
Wind  
Wind Speed 6 mph ()    
Max Wind Speed 12 mph    
Max Gust Speed -    
Visibility 8.0 miles    
Events      
T = Trace of Precipitation, MM = Missing Value Source: Averaged Metar Reports

Daily Weather History Graph

Daily Weather History Graph

Search for Another Location

Airport:

Trip Planner

Search our weather history database for the weather conditions in past years. The results will help you decide how hot, cold, wet, or windy it might be!

Date:

Astronomy

Aug. 20, 2013 Rise Set
Actual Time 6:22 AM BST 8:33 PM BST
Civil Twilight 5:47 AM BST 9:08 PM BST
Nautical Twilight 5:03 AM BST 9:52 PM BST
Astronomical Twilight 4:13 AM BST 10:41 PM BST
Moon 7:50 PM BST (8/20) 5:37 AM BST (8/20)
Length of Visible Light 15h 21m
Length of Day
14h 10m
Waxing Gibbous, 99% of the Moon is Illuminated
Aug 20
Waxing Gibbous
Aug 21
Full
Aug 28
Last Quarter
Sep 5
New
Sep 12
First Quarter

Hourly Weather History & Observations

Time (BST) Temp. Dew Point Humidity Pressure Visibility Wind Dir Wind Speed Gust Speed Precip Events Conditions
12:50 AM 58 °F 55 °F 87% 30.38 in 15 mi West 3.5 mph - -  
3:50 AM 59 °F 57 °F 91% 30.37 in 15 mi SSW 2.3 mph - -  
6:50 AM 60 °F 57 °F 86% 30.37 in 17 mi ESE 2.3 mph - -  
7:20 AM 60.8 °F 57.2 °F 88% 30.36 in - ESE 3.5 mph - N/A   Clear
8:20 AM 60.8 °F 57.2 °F 88% 30.36 in 6.2 mi South 3.5 mph - N/A   Partly Cloudy
8:50 AM 60.8 °F 59.0 °F 94% 30.39 in - South 4.6 mph - N/A   Clear
9:20 AM 62.6 °F 59.0 °F 88% 30.39 in 6.2 mi SSE 4.6 mph - N/A   Partly Cloudy
9:50 AM 64 °F 60 °F 81% 30.39 in 19 mi SSE 5.8 mph - -   Scattered Clouds
9:50 AM 62.6 °F 57.2 °F 82% 30.39 in 6.2 mi SSE 5.8 mph - N/A   Partly Cloudy
10:20 AM 64.4 °F 59.0 °F 83% 30.39 in 6.2 mi South 6.9 mph - N/A   Partly Cloudy
10:50 AM 64.4 °F 57.2 °F 77% 30.39 in 6.2 mi SSW 6.9 mph - N/A   Partly Cloudy
11:20 AM 64.4 °F 57.2 °F 77% 30.39 in 6.2 mi South 8.1 mph - N/A   Partly Cloudy
11:50 AM 66.2 °F 57.2 °F 73% 30.39 in 6.2 mi SSW 9.2 mph - N/A   Partly Cloudy
12:20 PM 66.2 °F 59.0 °F 78% 30.39 in 6.2 mi South 9.2 mph - N/A   Partly Cloudy
12:50 PM 67 °F 58 °F 66% 30.39 in 25 mi South 9.2 mph - -  
12:50 PM 68.0 °F 59.0 °F 73% 30.39 in 6.2 mi South 9.2 mph - N/A   Partly Cloudy
1:20 PM 66.2 °F 57.2 °F 73% 30.24 in 6.2 mi South 10.4 mph - N/A   Partly Cloudy
1:50 PM 66.2 °F 57.2 °F 73% 30.39 in 6.2 mi South 10.4 mph - N/A   Partly Cloudy
2:20 PM 66.2 °F 57.2 °F 73% 30.36 in 6.2 mi South 11.5 mph - N/A   Partly Cloudy
2:50 PM 68.0 °F 59.0 °F 73% 30.36 in 6.2 mi South 11.5 mph - N/A   Partly Cloudy
3:20 PM 66.2 °F 57.2 °F 73% 30.36 in 6.2 mi South 10.4 mph - N/A   Partly Cloudy
3:50 PM 66 °F 56 °F 62% 30.37 in 25 mi SSW 11.5 mph - -  
3:50 PM 66.2 °F 57.2 °F 73% 30.36 in 6.2 mi SSW 11.5 mph - N/A   Partly Cloudy
4:50 PM 66.2 °F 57.2 °F 73% 30.36 in 6.2 mi SSW 10.4 mph - N/A   Partly Cloudy
5:20 PM 66.2 °F 57.2 °F 73% 30.36 in 6.2 mi SSW 10.4 mph - N/A   Partly Cloudy
5:50 PM 66.2 °F 57.2 °F 73% 30.36 in 6.2 mi South 9.2 mph - N/A   Partly Cloudy
6:20 PM 64.4 °F 57.2 °F 77% 30.33 in 6.2 mi South 9.2 mph - N/A   Partly Cloudy
6:50 PM 65 °F 56 °F 65% 30.34 in 25 mi SSW 8.1 mph - -   Scattered Clouds
9:50 PM 60 °F 57 °F 86% 30.33 in 31 mi South 5.8 mph - -   Scattered Clouds